Flag Weather past 2 weeks in Knittelfeld, Styria, Austria

Now
37 °F

Partly cloudy.


Feels Like: 37 °F
Forecast: 25 / 41 °F
Wind: 2 mph from North

Location: Zeltweg

Current Time: Nov 26, 2014 at 6:33:56 AM

Latest Report: Nov 26, 2014 at 5:50 AM


Visibility: 4 mi

Pressure: 30.12 "Hg

Humidity: 87%

Dew point: 34 °F

Location of KnittelfeldLocation

Historic Weather in Knittelfeld — Graph

°F

Knittelfeld temperature yesterday

Maximum temperature yesterday: 41 °F (at 1:50 PM)
Minimum temperature yesterday: 37 °F (at 4:50 AM)
Average temperature yesterday: 39 °F

Past Weeks' High & Low Weather Summary

 TemperatureHumidityPressure
High61 °F (Nov 11, 1:50 PM)100% (Nov 11, 7:50 AM)30.42 "Hg (Nov 11, 7:50 AM)
Low30 °F (Nov 22, 5:50 AM)51% (Nov 16, 12:50 PM)29.59 "Hg (Nov 16, 4:50 AM)
Average44 °F87%30.00 "Hg
* Reported Nov 10 9:50 PM — Nov 25 9:50 PM, Knittelfeld, Weather by CustomWeather, © 2014

Note: Actual official high and low records may vary slightly from our data, if they occured in-between our weather recording intervals... More about our weather records

Advertising

Knittelfeld weather history for previous 24 hours

 ConditionsComfort  
Time TempWeatherWind HumidityBarometerVisibility
9:50 PM
Nov 25
37 °FLow clouds.2 mph93%30.21 "Hg5 mi
8:50 PM39 °FMostly cloudy.5 mph87%30.21 "Hg5 mi
7:50 PM39 °FMostly cloudy.3 mph87%30.21 "Hg5 mi
6:50 PM39 °FLow clouds.7 mph87%30.21 "Hg5 mi
5:50 PM41 °FLow clouds.5 mph81%30.21 "Hg5 mi
4:50 PM41 °FPartly cloudy.2 mph87%30.21 "Hg5 mi
4:20 PM41 °FPartly cloudy.1 mph87%30.21 "Hg5 mi
3:50 PM41 °FBroken clouds.2 mph87%30.21 "Hg5 mi
3:20 PM39 °FBroken clouds.1 mph93%30.21 "Hg5 mi
2:50 PM39 °FPartly sunny.2 mph93%30.21 "Hg5 mi
2:20 PM39 °FPartly sunny.3 mph93%30.21 "Hg5 mi
1:50 PM41 °FBroken clouds.1 mph87%30.21 "Hg5 mi
1:20 PM39 °FBroken clouds.2 mph93%30.21 "Hg5 mi
12:50 PM39 °FBroken clouds.1 mph93%30.21 "Hg4 mi
12:20 PM39 °FFog.3 mph93%30.24 "Hg3 mi
11:50 AM39 °FFog.3 mph93%30.24 "Hg3 mi
11:20 AM37 °FFog.3 mph100%30.24 "Hg3 mi
10:50 AM37 °FFog.1 mph100%30.24 "Hg3 mi
10:20 AM37 °FSleet. Fog.1 mph93%30.27 "Hg3 mi
9:50 AM37 °FFog.1 mph93%30.27 "Hg3 mi
9:20 AM37 °FSleet. Fog.3 mph100%30.27 "Hg3 mi
8:50 AM37 °FDrizzle. Fog.1 mph93%30.24 "Hg3 mi
8:20 AM37 °FFog.1 mph93%30.24 "Hg2 mi
7:50 AM37 °FDrizzle. Fog.1 mph93%30.24 "Hg2 mi
7:20 AM37 °FDrizzle. Fog.3 mph93%30.24 "Hg2 mi
6:50 AM37 °FFog.2 mph93%30.24 "Hg3 mi
Weather by CustomWeather, © 2014

See weather overviewHow to use our weather pages